Year,Month,Day,Hour,Minute,Value (Times are PST for temperature in C)
2006,07,22,00,00,23.40
2006,07,22,00,01,23.40
2006,07,22,00,02,23.40
2006,07,22,00,03,23.40
2006,07,22,00,04,23.40
2006,07,22,00,05,23.30
2006,07,22,00,06,23.30
2006,07,22,00,07,23.30
2006,07,22,00,08,23.30
2006,07,22,00,09,23.30
2006,07,22,00,10,23.30
2006,07,22,00,11,23.30
2006,07,22,00,12,23.30
2006,07,22,00,13,23.20
2006,07,22,00,14,23.20
2006,07,22,00,15,23.20
2006,07,22,00,16,23.20
2006,07,22,00,17,23.20
2006,07,22,00,18,23.20
2006,07,22,00,19,23.20
2006,07,22,00,20,23.10
2006,07,22,00,21,23.10
2006,07,22,00,22,23.10
2006,07,22,00,23,23.10
2006,07,22,00,24,23.00
2006,07,22,00,25,22.90
2006,07,22,00,26,22.90
2006,07,22,00,27,22.90
2006,07,22,00,28,22.90
2006,07,22,00,29,22.90
2006,07,22,00,30,22.90
2006,07,22,00,31,22.90
2006,07,22,00,32,22.90
2006,07,22,00,33,22.80
2006,07,22,00,34,22.80
2006,07,22,00,35,22.80
2006,07,22,00,36,22.80
2006,07,22,00,37,22.80
2006,07,22,00,38,22.80
2006,07,22,00,39,22.80
2006,07,22,00,40,22.80
2006,07,22,00,41,22.70
2006,07,22,00,42,22.70
2006,07,22,00,43,22.70
2006,07,22,00,44,22.70
2006,07,22,00,45,22.70
2006,07,22,00,46,22.70
2006,07,22,00,47,22.60
2006,07,22,00,48,22.60
2006,07,22,00,49,22.60
2006,07,22,00,50,22.50
2006,07,22,00,51,22.50
2006,07,22,00,52,22.50
2006,07,22,00,53,22.40
2006,07,22,00,54,22.40
2006,07,22,00,55,22.40
2006,07,22,00,56,22.30
2006,07,22,00,57,22.30
2006,07,22,00,58,22.30
2006,07,22,00,59,22.20
2006,07,22,01,00,22.20
2006,07,22,01,01,22.20
2006,07,22,01,02,22.10
2006,07,22,01,03,22.10
2006,07,22,01,04,22.10
2006,07,22,01,05,22.00
2006,07,22,01,06,22.00
2006,07,22,01,07,22.00
2006,07,22,01,08,22.00
2006,07,22,01,09,21.90
2006,07,22,01,10,21.90
2006,07,22,01,11,21.90
2006,07,22,01,12,21.90
2006,07,22,01,13,21.90
2006,07,22,01,14,21.80
2006,07,22,01,15,21.80
2006,07,22,01,16,21.80
2006,07,22,01,17,21.80
2006,07,22,01,18,21.80
2006,07,22,01,19,21.70
2006,07,22,01,20,21.70
2006,07,22,01,21,21.70
2006,07,22,01,22,21.70
2006,07,22,01,23,21.70
2006,07,22,01,24,21.70
2006,07,22,01,25,21.60
2006,07,22,01,26,21.60
2006,07,22,01,27,21.60
2006,07,22,01,28,21.60
2006,07,22,01,29,21.60
2006,07,22,01,30,21.60
2006,07,22,01,31,21.60
2006,07,22,01,32,21.60
2006,07,22,01,33,21.40
2006,07,22,01,34,21.40
2006,07,22,01,35,21.40
2006,07,22,01,36,21.40
2006,07,22,01,37,21.40
2006,07,22,01,38,21.40
2006,07,22,01,39,21.40
2006,07,22,01,40,21.40
2006,07,22,01,41,21.40
2006,07,22,01,42,21.40
2006,07,22,01,43,21.40
2006,07,22,01,44,21.40
2006,07,22,01,45,21.40
2006,07,22,01,46,21.30
2006,07,22,01,47,21.30
2006,07,22,01,48,21.30
2006,07,22,01,49,21.30
2006,07,22,01,50,21.30
2006,07,22,01,51,21.30
2006,07,22,01,52,21.30
2006,07,22,01,53,21.30
2006,07,22,01,54,21.30
2006,07,22,01,55,21.30
2006,07,22,01,56,21.30
2006,07,22,01,57,21.30
2006,07,22,01,58,21.30
2006,07,22,01,59,21.30
2006,07,22,02,00,21.30
2006,07,22,02,01,21.30
2006,07,22,02,02,21.30
2006,07,22,02,03,21.30
2006,07,22,02,04,21.30
2006,07,22,02,05,21.30
2006,07,22,02,06,21.30
2006,07,22,02,07,21.40
2006,07,22,02,08,21.40
2006,07,22,02,09,21.40
2006,07,22,02,10,21.40
2006,07,22,02,11,21.30
2006,07,22,02,12,21.30
2006,07,22,02,13,21.30
2006,07,22,02,14,21.30
2006,07,22,02,15,21.30
2006,07,22,02,16,21.30
2006,07,22,02,17,21.30
2006,07,22,02,18,21.30
2006,07,22,02,19,21.30
2006,07,22,02,20,21.30
2006,07,22,02,21,21.30
2006,07,22,02,22,21.30
2006,07,22,02,23,21.30
2006,07,22,02,24,21.30
2006,07,22,02,25,21.30
2006,07,22,02,26,21.30
2006,07,22,02,27,21.30
2006,07,22,02,28,21.30
2006,07,22,02,29,21.30
2006,07,22,02,30,21.20
2006,07,22,02,31,21.20
2006,07,22,02,32,21.20
2006,07,22,02,33,21.20
2006,07,22,02,34,21.20
2006,07,22,02,35,21.20
2006,07,22,02,36,21.20
2006,07,22,02,37,21.20
2006,07,22,02,38,21.20
2006,07,22,02,39,21.20
2006,07,22,02,40,21.20
2006,07,22,02,41,21.10
2006,07,22,02,42,21.10
2006,07,22,02,43,21.10
2006,07,22,02,44,21.10
2006,07,22,02,45,21.10
2006,07,22,02,46,21.10
2006,07,22,02,47,21.10
2006,07,22,02,48,21.10
2006,07,22,02,49,21.10
2006,07,22,02,50,21.00
2006,07,22,02,51,21.00
2006,07,22,02,52,21.00
2006,07,22,02,53,21.00
2006,07,22,02,54,21.00
2006,07,22,02,55,21.00
2006,07,22,02,56,21.00
2006,07,22,02,57,20.90
2006,07,22,02,58,20.90
2006,07,22,02,59,20.90
2006,07,22,03,00,20.90
2006,07,22,03,01,20.90
2006,07,22,03,02,20.90
2006,07,22,03,03,20.80
2006,07,22,03,04,20.80
2006,07,22,03,05,20.80
2006,07,22,03,06,20.80
2006,07,22,03,07,20.80
2006,07,22,03,08,20.80
2006,07,22,03,09,20.80
2006,07,22,03,10,20.80
2006,07,22,03,11,20.80
2006,07,22,03,12,20.70
2006,07,22,03,13,20.70
2006,07,22,03,14,20.70
2006,07,22,03,15,20.70
2006,07,22,03,16,20.70
2006,07,22,03,17,20.70
2006,07,22,03,18,20.60
2006,07,22,03,19,20.60
2006,07,22,03,20,20.60
2006,07,22,03,21,20.60
2006,07,22,03,22,20.60
2006,07,22,03,23,20.60
2006,07,22,03,24,20.60
2006,07,22,03,25,20.60
2006,07,22,03,26,20.60
2006,07,22,03,27,20.60
2006,07,22,03,28,20.60
2006,07,22,03,29,20.60
2006,07,22,03,30,20.60
2006,07,22,03,31,20.60
2006,07,22,03,32,20.60
2006,07,22,03,33,20.60
2006,07,22,03,34,20.60
2006,07,22,03,35,20.60
2006,07,22,03,36,20.60
2006,07,22,03,37,20.60
2006,07,22,03,38,20.60
2006,07,22,03,39,20.60
2006,07,22,03,40,20.60
2006,07,22,03,41,20.60
2006,07,22,03,42,20.50
2006,07,22,03,43,20.50
2006,07,22,03,44,20.50
2006,07,22,03,45,20.50
2006,07,22,03,46,20.50
2006,07,22,03,47,20.50
2006,07,22,03,48,20.50
2006,07,22,03,49,20.50
2006,07,22,03,50,20.50
2006,07,22,03,51,20.50
2006,07,22,03,52,20.50
2006,07,22,03,53,20.50
2006,07,22,03,54,20.50
2006,07,22,03,55,20.50
2006,07,22,03,56,20.50
2006,07,22,03,57,20.50
2006,07,22,03,58,20.50
2006,07,22,03,59,20.50
2006,07,22,04,00,20.50
2006,07,22,04,01,20.50
2006,07,22,04,02,20.50
2006,07,22,04,03,20.50
2006,07,22,04,04,20.50
2006,07,22,04,05,20.60
2006,07,22,04,06,20.50
2006,07,22,04,07,20.50
2006,07,22,04,08,20.50
2006,07,22,04,09,20.50
2006,07,22,04,10,20.50
2006,07,22,04,11,20.50
2006,07,22,04,12,20.50
2006,07,22,04,13,20.60
2006,07,22,04,14,20.60
2006,07,22,04,15,20.60
2006,07,22,04,16,20.60
2006,07,22,04,17,20.60
2006,07,22,04,18,20.60
2006,07,22,04,19,20.60
2006,07,22,04,20,20.60
2006,07,22,04,21,20.70
2006,07,22,04,22,20.70
2006,07,22,04,23,20.70
2006,07,22,04,24,20.70
2006,07,22,04,25,20.70
2006,07,22,04,26,20.70
2006,07,22,04,27,20.70
2006,07,22,04,28,20.70
2006,07,22,04,29,20.70
2006,07,22,04,30,20.70
2006,07,22,04,31,20.60
2006,07,22,04,32,20.60
2006,07,22,04,33,20.60
2006,07,22,04,34,20.60
2006,07,22,04,35,20.60
2006,07,22,04,36,20.60
2006,07,22,04,37,20.60
2006,07,22,04,38,20.60
2006,07,22,04,39,20.60
2006,07,22,04,40,20.60
2006,07,22,04,41,20.60
2006,07,22,04,42,20.60
2006,07,22,04,43,20.60
2006,07,22,04,44,20.60
2006,07,22,04,45,20.60
2006,07,22,04,46,20.60
2006,07,22,04,47,20.60
2006,07,22,04,48,20.60
2006,07,22,04,49,20.60
2006,07,22,04,50,20.60
2006,07,22,04,51,20.60
2006,07,22,04,52,20.60
2006,07,22,04,53,20.60
2006,07,22,04,54,20.60
2006,07,22,04,55,20.60
2006,07,22,04,56,20.60
2006,07,22,04,57,20.60
2006,07,22,04,58,20.60
2006,07,22,04,59,20.60
2006,07,22,05,00,20.60
2006,07,22,05,01,20.60
2006,07,22,05,02,20.60
2006,07,22,05,03,20.60
2006,07,22,05,04,20.60
2006,07,22,05,05,20.60
2006,07,22,05,06,20.60
2006,07,22,05,07,20.60
2006,07,22,05,08,20.60
2006,07,22,05,09,20.60
2006,07,22,05,10,20.60
2006,07,22,05,11,20.60
2006,07,22,05,12,20.60
2006,07,22,05,13,20.60
2006,07,22,05,14,20.60
2006,07,22,05,15,20.60
2006,07,22,05,16,20.50
2006,07,22,05,17,20.50
2006,07,22,05,18,20.50
2006,07,22,05,19,20.50
2006,07,22,05,20,20.50
2006,07,22,05,21,20.50
2006,07,22,05,22,20.40
2006,07,22,05,23,20.40
2006,07,22,05,24,20.40
2006,07,22,05,25,20.40
2006,07,22,05,26,20.50
2006,07,22,05,27,20.50
2006,07,22,05,28,20.50
2006,07,22,05,29,20.50
2006,07,22,05,30,20.50
2006,07,22,05,31,20.40
2006,07,22,05,32,20.40
2006,07,22,05,33,20.30
2006,07,22,05,34,20.30
2006,07,22,05,35,20.20
2006,07,22,05,36,20.10
2006,07,22,05,37,20.00
2006,07,22,05,38,19.90
2006,07,22,05,39,19.90
2006,07,22,05,40,19.80
2006,07,22,05,41,19.80
2006,07,22,05,42,19.70
2006,07,22,05,43,19.70
2006,07,22,05,44,19.70
2006,07,22,05,45,19.60
2006,07,22,05,46,19.60
2006,07,22,05,47,19.60
2006,07,22,05,48,19.60
2006,07,22,05,49,19.60
2006,07,22,05,50,19.50
2006,07,22,05,51,19.50
2006,07,22,05,52,19.50
2006,07,22,05,53,19.50
2006,07,22,05,54,19.50
2006,07,22,05,55,19.40
2006,07,22,05,56,19.40
2006,07,22,05,57,19.40
2006,07,22,05,58,19.40
2006,07,22,05,59,19.40
2006,07,22,06,00,19.40
2006,07,22,06,01,19.30
2006,07,22,06,02,19.30
2006,07,22,06,03,19.30
2006,07,22,06,04,19.30
2006,07,22,06,05,19.30
2006,07,22,06,06,19.20
2006,07,22,06,07,19.20
2006,07,22,06,08,19.20
2006,07,22,06,09,19.20
2006,07,22,06,10,19.20
2006,07,22,06,11,19.10
2006,07,22,06,12,19.10
2006,07,22,06,13,19.10
2006,07,22,06,14,19.10
2006,07,22,06,15,19.10
2006,07,22,06,16,19.10
2006,07,22,06,17,19.20
2006,07,22,06,18,19.20
2006,07,22,06,19,19.20
2006,07,22,06,20,19.20
2006,07,22,06,21,19.20
2006,07,22,06,22,19.20
2006,07,22,06,23,19.20
2006,07,22,06,24,19.20
2006,07,22,06,25,19.20
2006,07,22,06,26,19.20
2006,07,22,06,27,19.20
2006,07,22,06,28,19.20
2006,07,22,06,29,19.20
2006,07,22,06,30,19.20
2006,07,22,06,31,19.20
2006,07,22,06,32,19.30
2006,07,22,06,33,19.30
2006,07,22,06,34,19.30
2006,07,22,06,35,19.30
2006,07,22,06,36,19.30
2006,07,22,06,37,19.30
2006,07,22,06,38,19.30
2006,07,22,06,39,19.40
2006,07,22,06,40,19.40
2006,07,22,06,41,19.40
2006,07,22,06,42,19.40
2006,07,22,06,43,19.40
2006,07,22,06,44,19.40
2006,07,22,06,45,19.40
2006,07,22,06,46,19.50
2006,07,22,06,47,19.50
2006,07,22,06,48,19.50
2006,07,22,06,49,19.50
2006,07,22,06,50,19.50
2006,07,22,06,51,19.50
2006,07,22,06,52,19.50
2006,07,22,06,53,19.50
2006,07,22,06,54,19.60
2006,07,22,06,55,19.60
2006,07,22,06,56,19.60
2006,07,22,06,57,19.60
2006,07,22,06,58,19.60
2006,07,22,06,59,19.60
2006,07,22,07,00,19.60
2006,07,22,07,01,19.70
2006,07,22,07,02,19.70
2006,07,22,07,03,19.70
2006,07,22,07,04,19.80
2006,07,22,07,05,19.80
2006,07,22,07,06,19.90
2006,07,22,07,07,19.90
2006,07,22,07,08,19.90
2006,07,22,07,09,19.90
2006,07,22,07,10,20.00
2006,07,22,07,11,20.10
2006,07,22,07,12,20.10
2006,07,22,07,13,20.10
2006,07,22,07,14,20.20
2006,07,22,07,15,20.20
2006,07,22,07,16,20.20
2006,07,22,07,17,20.30
2006,07,22,07,18,20.40
2006,07,22,07,19,20.40
2006,07,22,07,20,20.50
2006,07,22,07,21,20.50
2006,07,22,07,22,20.60
2006,07,22,07,23,20.60
2006,07,22,07,24,20.70
2006,07,22,07,25,20.80
2006,07,22,07,26,20.90
2006,07,22,07,27,21.00
2006,07,22,07,28,21.00
2006,07,22,07,29,21.10
2006,07,22,07,30,21.20
2006,07,22,07,31,21.30
2006,07,22,07,32,21.30
2006,07,22,07,33,21.30
2006,07,22,07,34,21.40
2006,07,22,07,35,21.40
2006,07,22,07,36,21.60
2006,07,22,07,37,21.60
2006,07,22,07,38,21.70
2006,07,22,07,39,21.80
2006,07,22,07,40,21.90
2006,07,22,07,41,22.00
2006,07,22,07,42,22.00
2006,07,22,07,43,22.10
2006,07,22,07,44,22.20
2006,07,22,07,45,22.30
2006,07,22,07,46,22.30
2006,07,22,07,47,22.40
2006,07,22,07,48,22.50
2006,07,22,07,49,22.60
2006,07,22,07,50,22.60
2006,07,22,07,51,22.70
2006,07,22,07,52,22.70
2006,07,22,07,53,22.80
2006,07,22,07,54,22.80
2006,07,22,07,55,22.90
2006,07,22,07,56,22.90
2006,07,22,07,57,22.90
2006,07,22,07,58,23.00
2006,07,22,07,59,23.10
2006,07,22,08,00,23.10
2006,07,22,08,01,23.10
2006,07,22,08,02,23.20
2006,07,22,08,03,23.20
2006,07,22,08,04,23.30
2006,07,22,08,05,23.30
2006,07,22,08,06,23.30
2006,07,22,08,07,23.30
2006,07,22,08,08,23.30
2006,07,22,08,09,23.30
2006,07,22,08,10,23.30
2006,07,22,08,11,23.30
2006,07,22,08,12,23.30
2006,07,22,08,13,23.30
2006,07,22,08,14,23.20
2006,07,22,08,15,23.20
2006,07,22,08,16,23.20
2006,07,22,08,17,23.20
2006,07,22,08,18,23.20
2006,07,22,08,19,23.10
2006,07,22,08,20,23.10
2006,07,22,08,21,23.10
2006,07,22,08,22,23.10
2006,07,22,08,23,23.10
2006,07,22,08,24,23.10
2006,07,22,08,25,23.10
2006,07,22,08,26,23.20
2006,07,22,08,27,23.20
2006,07,22,08,28,23.20
2006,07,22,08,29,23.20
2006,07,22,08,30,23.20
2006,07,22,08,31,23.30
2006,07,22,08,32,23.30
2006,07,22,08,33,23.30
2006,07,22,08,34,23.30
2006,07,22,08,35,23.40
2006,07,22,08,36,23.50
2006,07,22,08,37,23.60
2006,07,22,08,38,23.70
2006,07,22,08,39,23.70
2006,07,22,08,40,23.80
2006,07,22,08,41,23.90
2006,07,22,08,42,24.10
2006,07,22,08,43,24.10
2006,07,22,08,44,24.20
2006,07,22,08,45,24.30
2006,07,22,08,46,24.40
2006,07,22,08,47,24.50
2006,07,22,08,48,24.60
2006,07,22,08,49,24.80
2006,07,22,08,50,24.90
2006,07,22,08,51,25.00
2006,07,22,08,52,25.10
2006,07,22,08,53,25.30
2006,07,22,08,54,25.40
2006,07,22,08,55,25.40
2006,07,22,08,56,25.50
2006,07,22,08,57,25.60
2006,07,22,08,58,25.80
2006,07,22,08,59,25.90
2006,07,22,09,00,25.90
2006,07,22,09,01,26.10
2006,07,22,09,02,26.20
2006,07,22,09,03,26.30
2006,07,22,09,04,26.40
2006,07,22,09,05,26.60
2006,07,22,09,06,26.60
2006,07,22,09,07,26.70
2006,07,22,09,08,26.80
2006,07,22,09,09,26.80
2006,07,22,09,10,26.90
2006,07,22,09,11,27.10
2006,07,22,09,12,27.00
2006,07,22,09,13,26.70
2006,07,22,09,14,26.10
2006,07,22,09,15,25.30
2006,07,22,09,16,24.30
2006,07,22,09,17,23.40
2006,07,22,09,18,22.80
2006,07,22,09,19,22.30
2006,07,22,09,20,21.70
2006,07,22,09,21,21.40
2006,07,22,09,22,21.00
2006,07,22,09,23,20.80
2006,07,22,09,24,20.70
2006,07,22,09,25,20.60
2006,07,22,09,26,20.60
2006,07,22,09,27,20.60
2006,07,22,09,28,20.60
2006,07,22,09,29,20.70
2006,07,22,09,30,20.80
2006,07,22,09,31,20.90
2006,07,22,09,32,21.00
2006,07,22,09,33,21.10
2006,07,22,09,34,21.30
2006,07,22,09,35,21.50
2006,07,22,09,36,21.60
2006,07,22,09,37,21.80
2006,07,22,09,38,21.90
2006,07,22,09,39,22.00
2006,07,22,09,40,22.10
2006,07,22,09,41,22.20
2006,07,22,09,42,22.10
2006,07,22,09,43,22.10
2006,07,22,09,44,22.20
2006,07,22,09,45,22.20
2006,07,22,09,46,22.20
2006,07,22,09,47,22.20
2006,07,22,09,48,22.10
2006,07,22,09,49,22.10
2006,07,22,09,50,22.10
2006,07,22,09,51,22.10
2006,07,22,09,52,22.20
2006,07,22,09,53,22.20
2006,07,22,09,54,22.30
2006,07,22,09,55,22.40
2006,07,22,09,56,22.50
2006,07,22,09,57,22.60
2006,07,22,09,58,22.80
2006,07,22,09,59,22.90
2006,07,22,10,00,23.10
2006,07,22,10,01,23.30
2006,07,22,10,02,23.50
2006,07,22,10,03,23.70
2006,07,22,10,04,23.90
2006,07,22,10,05,24.10
2006,07,22,10,06,24.30
2006,07,22,10,07,24.50
2006,07,22,10,08,24.80
2006,07,22,10,09,25.00
2006,07,22,10,10,25.30
2006,07,22,10,11,25.60
2006,07,22,10,12,25.80
2006,07,22,10,13,26.00
2006,07,22,10,14,26.30
2006,07,22,10,15,26.50
2006,07,22,10,16,26.60
2006,07,22,10,17,26.80
2006,07,22,10,18,27.00
2006,07,22,10,19,27.20
2006,07,22,10,20,27.20
2006,07,22,10,21,27.20
2006,07,22,10,22,27.20
2006,07,22,10,23,27.20
2006,07,22,10,24,27.20
2006,07,22,10,25,27.20
2006,07,22,10,26,27.20
2006,07,22,10,27,27.20
2006,07,22,10,28,27.20
2006,07,22,10,29,27.20
2006,07,22,10,30,27.20
2006,07,22,10,31,27.20
2006,07,22,10,32,27.20
2006,07,22,10,33,27.20
2006,07,22,10,34,27.20
2006,07,22,10,35,27.00
2006,07,22,10,36,26.70
2006,07,22,10,37,26.40
2006,07,22,10,38,25.80
2006,07,22,10,39,25.40
2006,07,22,10,40,24.90
2006,07,22,10,41,24.50
2006,07,22,10,42,24.10
2006,07,22,10,43,23.90
2006,07,22,10,44,23.80
2006,07,22,10,45,23.60
2006,07,22,10,46,23.40
2006,07,22,10,47,23.40
2006,07,22,10,48,23.30
2006,07,22,10,49,23.30
2006,07,22,10,50,23.30
2006,07,22,10,51,23.20
2006,07,22,10,52,23.20
2006,07,22,10,53,23.10
2006,07,22,10,54,23.10
2006,07,22,10,55,23.10
2006,07,22,10,56,23.20
2006,07,22,10,57,23.20
2006,07,22,10,58,23.30
2006,07,22,10,59,23.30
2006,07,22,11,00,23.40
2006,07,22,11,01,23.60
2006,07,22,11,02,23.70
2006,07,22,11,03,23.80
2006,07,22,11,04,24.00
2006,07,22,11,05,24.10
2006,07,22,11,06,24.10
2006,07,22,11,07,24.10
2006,07,22,11,08,24.10
2006,07,22,11,09,24.20
2006,07,22,11,10,24.30
2006,07,22,11,11,24.50
2006,07,22,11,12,24.60
2006,07,22,11,13,24.60
2006,07,22,11,14,24.50
2006,07,22,11,15,24.50
2006,07,22,11,16,24.50
2006,07,22,11,17,24.50
2006,07,22,11,18,24.60
2006,07,22,11,19,24.70
2006,07,22,11,20,24.80
2006,07,22,11,21,24.90
2006,07,22,11,22,25.10
2006,07,22,11,23,25.30
2006,07,22,11,24,25.30
2006,07,22,11,25,25.30
2006,07,22,11,26,25.20
2006,07,22,11,27,25.10
2006,07,22,11,28,25.00
2006,07,22,11,29,25.00
2006,07,22,11,30,24.90
2006,07,22,11,31,24.90
2006,07,22,11,32,25.00
2006,07,22,11,33,25.00
2006,07,22,11,34,25.00
2006,07,22,11,35,25.10
2006,07,22,11,36,25.10
2006,07,22,11,37,25.30
2006,07,22,11,38,25.40
2006,07,22,11,39,25.50
2006,07,22,11,40,25.80
2006,07,22,11,41,25.90
2006,07,22,11,42,26.00
2006,07,22,11,43,26.10
2006,07,22,11,44,26.10
2006,07,22,11,45,26.10
2006,07,22,11,46,25.90
2006,07,22,11,47,25.90
2006,07,22,11,48,25.90
2006,07,22,11,49,26.00
2006,07,22,11,50,26.10
2006,07,22,11,51,26.20
2006,07,22,11,52,26.30
2006,07,22,11,53,26.40
2006,07,22,11,54,26.40
2006,07,22,11,55,26.50
2006,07,22,11,56,26.60
2006,07,22,11,57,26.70
2006,07,22,11,58,26.90
2006,07,22,11,59,26.90
2006,07,22,12,00,27.00
2006,07,22,12,01,27.10
2006,07,22,12,02,27.20
2006,07,22,12,03,27.30
2006,07,22,12,04,27.50
2006,07,22,12,05,27.70
2006,07,22,12,06,27.80
2006,07,22,12,07,28.00
2006,07,22,12,08,28.10
2006,07,22,12,09,28.30
2006,07,22,12,10,28.30
2006,07,22,12,11,28.40
2006,07,22,12,12,28.50
2006,07,22,12,13,28.70
2006,07,22,12,14,28.80
2006,07,22,12,15,28.80
2006,07,22,12,16,28.90
2006,07,22,12,17,28.90
2006,07,22,12,18,29.10
2006,07,22,12,19,29.20
2006,07,22,12,20,29.20
2006,07,22,12,21,29.30
2006,07,22,12,22,29.40
2006,07,22,12,23,29.40
2006,07,22,12,24,29.40
2006,07,22,12,25,29.50
2006,07,22,12,26,29.60
2006,07,22,12,27,29.70
2006,07,22,12,28,29.90
2006,07,22,12,29,30.10
2006,07,22,12,30,30.20
2006,07,22,12,31,30.30
2006,07,22,12,32,30.30
2006,07,22,12,33,30.30
2006,07,22,12,34,30.30
2006,07,22,12,35,30.30
2006,07,22,12,36,30.40
2006,07,22,12,37,30.40
2006,07,22,12,38,30.60
2006,07,22,12,39,30.60
2006,07,22,12,40,30.60
2006,07,22,12,41,30.60
2006,07,22,12,42,30.70
2006,07,22,12,43,30.70
2006,07,22,12,44,30.80
2006,07,22,12,45,30.80
2006,07,22,12,46,30.90
2006,07,22,12,47,30.90
2006,07,22,12,48,31.00
2006,07,22,12,49,31.10
2006,07,22,12,50,31.20
2006,07,22,12,51,31.20
2006,07,22,12,52,31.30
2006,07,22,12,53,31.40
2006,07,22,12,54,31.40
2006,07,22,12,55,31.40
2006,07,22,12,56,31.40
2006,07,22,12,57,31.50
2006,07,22,12,58,31.60
2006,07,22,12,59,31.60
2006,07,22,13,00,31.70
2006,07,22,13,01,31.80
2006,07,22,13,02,31.80
2006,07,22,13,03,31.80
2006,07,22,13,04,31.80
2006,07,22,13,05,31.80
2006,07,22,13,06,31.80
2006,07,22,13,07,31.60
2006,07,22,13,08,31.60
2006,07,22,13,09,31.50
2006,07,22,13,10,31.40
2006,07,22,13,11,31.40
2006,07,22,13,12,31.40
2006,07,22,13,13,31.40
2006,07,22,13,14,31.50
2006,07,22,13,15,31.60
2006,07,22,13,16,31.60
2006,07,22,13,17,31.70
2006,07,22,13,18,31.90
2006,07,22,13,19,32.00
2006,07,22,13,20,32.10
2006,07,22,13,21,32.20
2006,07,22,13,22,32.30
2006,07,22,13,23,32.50
2006,07,22,13,24,32.70
2006,07,22,13,25,32.90
2006,07,22,13,26,33.10
2006,07,22,13,27,33.30
2006,07,22,13,28,33.30
2006,07,22,13,29,32.80
2006,07,22,13,30,32.00
2006,07,22,13,31,31.40
2006,07,22,13,32,30.80
2006,07,22,13,33,30.20
2006,07,22,13,34,29.70
2006,07,22,13,35,29.40
2006,07,22,13,36,29.00
2006,07,22,13,37,28.50
2006,07,22,13,38,28.20
2006,07,22,13,39,27.80
2006,07,22,13,40,27.50
2006,07,22,13,41,27.30
2006,07,22,13,42,27.00
2006,07,22,13,43,26.90
2006,07,22,13,44,26.90
2006,07,22,13,45,26.80
2006,07,22,13,46,26.80
2006,07,22,13,47,26.80
2006,07,22,13,48,26.80
2006,07,22,13,49,26.80
2006,07,22,13,50,26.80
2006,07,22,13,51,26.80
2006,07,22,13,52,26.70
2006,07,22,13,53,26.60
2006,07,22,13,54,26.60
2006,07,22,13,55,26.50
2006,07,22,13,56,26.40
2006,07,22,13,57,26.40
2006,07,22,13,58,26.40
2006,07,22,13,59,26.40
2006,07,22,14,00,26.50
2006,07,22,14,01,26.60
2006,07,22,14,02,26.70
2006,07,22,14,03,26.70
2006,07,22,14,04,26.70
2006,07,22,14,05,26.60
2006,07,22,14,06,26.60
2006,07,22,14,07,26.60
2006,07,22,14,08,26.60
2006,07,22,14,09,26.60
2006,07,22,14,10,26.60
2006,07,22,14,11,26.70
2006,07,22,14,12,26.80
2006,07,22,14,13,26.80
2006,07,22,14,14,26.80
2006,07,22,14,15,26.80
2006,07,22,14,16,26.80
2006,07,22,14,17,26.80
2006,07,22,14,18,26.70
2006,07,22,14,19,26.80
2006,07,22,14,20,26.90
2006,07,22,14,21,26.90
2006,07,22,14,22,26.90
2006,07,22,14,23,26.90
2006,07,22,14,24,26.90
2006,07,22,14,25,26.80
2006,07,22,14,26,26.70
2006,07,22,14,27,26.60
2006,07,22,14,28,26.40
2006,07,22,14,29,26.30
2006,07,22,14,30,26.40
2006,07,22,14,31,26.50
2006,07,22,14,32,26.70
2006,07,22,14,33,26.80
2006,07,22,14,34,26.90
2006,07,22,14,35,27.10
2006,07,22,14,36,27.20
2006,07,22,14,37,27.30
2006,07,22,14,38,27.30
2006,07,22,14,39,27.30
2006,07,22,14,40,27.40
2006,07,22,14,41,27.40
2006,07,22,14,42,27.40
2006,07,22,14,43,27.40
2006,07,22,14,44,27.40
2006,07,22,14,45,27.50
2006,07,22,14,46,27.60
2006,07,22,14,47,27.60
2006,07,22,14,48,27.60
2006,07,22,14,49,27.60
2006,07,22,14,50,27.60
2006,07,22,14,51,27.70
2006,07,22,14,52,27.70
2006,07,22,14,53,27.80
2006,07,22,14,54,27.80
2006,07,22,14,55,27.80
2006,07,22,14,56,27.90
2006,07,22,14,57,28.00
2006,07,22,14,58,27.90
2006,07,22,14,59,27.90
2006,07,22,15,00,27.80
2006,07,22,15,01,27.90
2006,07,22,15,02,28.00
2006,07,22,15,03,28.10
2006,07,22,15,04,28.30
2006,07,22,15,05,28.40
2006,07,22,15,06,28.60
2006,07,22,15,07,28.70
2006,07,22,15,08,28.80
2006,07,22,15,09,28.90
2006,07,22,15,10,29.00
2006,07,22,15,11,29.10
2006,07,22,15,12,29.20
2006,07,22,15,13,29.20
2006,07,22,15,14,29.10
2006,07,22,15,15,28.90
2006,07,22,15,16,28.90
2006,07,22,15,17,29.00
2006,07,22,15,18,29.10
2006,07,22,15,19,29.10
2006,07,22,15,20,29.00
2006,07,22,15,21,28.90
2006,07,22,15,22,28.90
2006,07,22,15,23,28.90
2006,07,22,15,24,28.90
2006,07,22,15,25,28.80
2006,07,22,15,26,28.70
2006,07,22,15,27,28.60
2006,07,22,15,28,28.60
2006,07,22,15,29,28.60
2006,07,22,15,30,28.60
2006,07,22,15,31,28.70
2006,07,22,15,32,28.80
2006,07,22,15,33,28.90
2006,07,22,15,34,28.90
2006,07,22,15,35,29.00
2006,07,22,15,36,29.10
2006,07,22,15,37,29.20
2006,07,22,15,38,29.30
2006,07,22,15,39,29.40
2006,07,22,15,40,29.50
2006,07,22,15,41,29.60
2006,07,22,15,42,29.80
2006,07,22,15,43,29.80
2006,07,22,15,44,30.00
2006,07,22,15,45,30.10
2006,07,22,15,46,30.10
2006,07,22,15,47,30.00
2006,07,22,15,48,29.90
2006,07,22,15,49,29.80
2006,07,22,15,50,29.80
2006,07,22,15,51,29.70
2006,07,22,15,52,29.60
2006,07,22,15,53,29.50
2006,07,22,15,54,29.50
2006,07,22,15,55,29.50
2006,07,22,15,56,29.50
2006,07,22,15,57,29.40
2006,07,22,15,58,29.40
2006,07,22,15,59,29.30
2006,07,22,16,00,29.30
2006,07,22,16,01,29.30
2006,07,22,16,02,29.20
2006,07,22,16,03,29.30
2006,07,22,16,04,29.40
2006,07,22,16,05,29.50
2006,07,22,16,06,29.40
2006,07,22,16,07,29.50
2006,07,22,16,08,29.50
2006,07,22,16,09,29.40
2006,07,22,16,10,29.40
2006,07,22,16,11,29.40
2006,07,22,16,12,29.50
2006,07,22,16,13,29.40
2006,07,22,16,14,29.40
2006,07,22,16,15,29.40
2006,07,22,16,16,29.30
2006,07,22,16,17,29.30
2006,07,22,16,18,29.40
2006,07,22,16,19,29.40
2006,07,22,16,20,29.40
2006,07,22,16,21,29.40
2006,07,22,16,22,29.40
2006,07,22,16,23,29.30
2006,07,22,16,24,29.20
2006,07,22,16,25,29.10
2006,07,22,16,26,28.90
2006,07,22,16,27,28.90
2006,07,22,16,28,28.90
2006,07,22,16,29,28.80
2006,07,22,16,30,28.70
2006,07,22,16,31,28.60
2006,07,22,16,32,28.60
2006,07,22,16,33,28.50
2006,07,22,16,34,28.50
2006,07,22,16,35,28.60
2006,07,22,16,36,28.40
2006,07,22,16,37,28.40
2006,07,22,16,38,28.20
2006,07,22,16,39,28.10
2006,07,22,16,40,28.00
2006,07,22,16,41,27.80
2006,07,22,16,42,27.60
2006,07,22,16,43,27.50
2006,07,22,16,44,27.40
2006,07,22,16,45,27.30
2006,07,22,16,46,27.30
2006,07,22,16,47,27.20
2006,07,22,16,48,27.20
2006,07,22,16,49,27.20
2006,07,22,16,50,27.10
2006,07,22,16,51,27.10
2006,07,22,16,52,27.20
2006,07,22,16,53,27.20
2006,07,22,16,54,27.20
2006,07,22,16,55,27.20
2006,07,22,16,56,27.20
2006,07,22,16,57,27.30
2006,07,22,16,58,27.30
2006,07,22,16,59,27.40
2006,07,22,17,00,27.50
2006,07,22,17,01,27.60
2006,07,22,17,02,27.70
2006,07,22,17,03,27.80
2006,07,22,17,04,27.80
2006,07,22,17,05,27.80
2006,07,22,17,06,27.90
2006,07,22,17,07,27.90
2006,07,22,17,08,27.90
2006,07,22,17,09,28.00
2006,07,22,17,10,28.10
2006,07,22,17,11,28.20
2006,07,22,17,12,28.20
2006,07,22,17,13,28.20
2006,07,22,17,14,28.10
2006,07,22,17,15,28.10
2006,07,22,17,16,28.10
2006,07,22,17,17,28.10
2006,07,22,17,18,28.10
2006,07,22,17,19,28.10